Wetbulb
66.70 67.24 67.40 67.04 67.06 67.42 67.10 67.22 67.54 67.09 67.76 68.63 68.93 68.81 69.01 69.46 70.54 70.71 70.82 70.35 69.78 69.70 69.11 69.27 69.43 70.50 70.06 70.15 70.06 69.29 69.20 68.28 66.42 67.09 68.39 70.19 69.79 70.10 71.56 71.04 70.32 69.29 70.37
65.77 66.19 65.61 65.23 65.32 64.01 63.51 64.19 64.41 64.39 65.84 66.42 66.11 66.53 67.56 68.27 68.40 68.05 68.83 69.95 69.13 69.44 69.65 68.86 68.93 69.97 69.65 69.77 69.20 68.26 68.07 67.92 67.60 66.21 66.95 67.81 68.64 69.13 68.86 68.35 70.25 71.94 70.59
63.65 62.31 61.79 61.59 61.52 61.21 61.27 61.47 61.61 62.24 62.49 62.52 62.95 63.57 63.81 65.31 66.28 67.47 67.45 67.31 67.29 68.43 69.04 68.99 69.06 68.86 68.28 68.12 68.59 68.59 68.73 69.02 68.23 67.10 66.59 67.44 68.66 70.06 69.45 69.38 69.16 69.94 71.26
61.01 60.37 59.76 59.21 59.39 58.93 59.04 59.20 59.38 59.21 58.85 58.90 59.24 59.38 60.20 61.04 63.38 61.75 63.77 63.81 65.14 66.26 66.60 68.18 68.94 68.90 68.28 68.39 67.72 67.20 67.40 67.24 66.04 66.69 67.15 66.76 67.31 68.39 69.24 67.78 67.72 69.11 68.61
59.01 58.42 57.56 57.63 57.95 57.79 57.33 57.69 57.81 57.07 57.52 57.37 56.39 56.46 57.17 58.25 59.98 58.88 58.36 58.73 60.56 63.03 65.50 66.44 67.68 68.62 69.72 68.69 68.21 67.60 66.79 66.34 65.77 65.13 65.25 65.99 66.33 66.80 66.68 67.49 66.99 66.64 67.42
57.09 56.62 56.82 56.44 56.02 55.49 55.76 56.66 57.19 56.92 56.78 56.54 56.32 55.62 55.56 58.16 59.65 60.17 59.33 57.05 58.06 59.05 62.04 65.39 65.57 67.81 68.16 67.77 68.12 68.70 67.47 66.25 65.00 65.07 64.94 65.28 65.99 66.52 67.87 67.06 66.48 65.22 64.43
55.53 55.15 54.59 55.03 55.55 57.89 58.99 58.13 57.22 57.57 57.62 55.89 55.72 55.56 55.31 55.43 59.08 59.22 60.81 58.39 57.23 58.19 61.47 64.11 64.95 66.87 66.60 66.65 66.60 66.24 66.86 66.88 67.58 66.26 65.46 65.13 64.19 65.34 64.99 65.29 66.19 66.14 65.93
53.28 53.84 54.91 57.41 56.59 57.68 57.53 56.79 57.19 57.60 57.02 55.07 55.03 55.33 55.10 55.88 57.98 57.59 58.30 58.87 56.60 58.57 61.23 63.04 63.69 63.84 64.52 65.10 65.35 65.46 66.06 65.54 65.84 66.57 67.51 67.40 66.44 66.35 66.42 65.62 66.28 67.60 67.85
53.50 54.58 56.40 56.49 56.40 56.90 55.77 55.81 56.12 56.12 55.52 54.34 54.43 54.30 55.18 54.59 56.92 55.87 54.38 56.49 57.42 58.52 62.07 62.06 62.70 63.02 63.30 63.37 63.19 63.38 63.88 65.24 65.96 64.52 65.22 65.40 65.14 64.44 64.86 66.16 66.88 66.42 65.45
53.25 55.32 55.93 55.27 55.16 53.52 54.83 54.60 54.42 52.94 54.18 53.93 52.64 52.96 54.13 51.51 54.89 54.83 52.90 53.11 52.25 53.90 56.77 59.99 61.86 61.41 58.90 58.86 60.95 61.46 61.17 62.64 63.42 64.90 63.79 63.80 63.52 63.67 64.44 64.84 65.58 64.39 64.80
56.00 57.00 54.79 55.26 52.93 51.97 53.87 53.86 50.68 49.55 49.66 49.76 49.70 49.39 49.39 50.57 51.23 53.19 52.80 50.18 50.31 51.82 53.89 55.42 58.59 59.62 56.76 55.57 56.10 58.83 60.48 61.74 62.90 63.44 63.60 63.76 64.03 64.70 65.34 65.75 66.04 65.77 65.14
53.37 54.05 54.16 53.24 54.21 52.67 50.41 52.80 51.98 48.51 48.00 47.84 47.32 47.79 49.39 49.66 51.71 51.71 51.44 50.89 51.48 49.54 50.40 53.39 55.94 55.45 53.69 54.27 56.06 57.71 57.83 58.92 59.25 60.54 61.43 62.30 61.71 62.82 65.43 66.04 66.13 66.61 68.23
52.74 52.21 50.76 51.42 52.94 51.94 49.86 49.28 49.30 48.25 46.60 46.45 46.30 45.44 46.67 48.80 49.25 50.91 50.40 50.18 50.57 50.79 51.91 53.36 53.39 52.03 52.26 55.65 56.84 57.33 57.94 58.81 60.47 60.42 60.53 61.68 62.67 63.62 60.94 61.16 65.04 65.69 65.44
51.53 50.25 49.64 49.09 49.52 49.55 50.27 50.11 49.10 48.60 47.33 47.15 46.00 44.84 44.63 46.24 47.23 47.04 47.11 46.78 49.12 49.56 51.87 51.22 52.92 54.56 55.66 56.58 57.64 58.80 59.25 59.19 58.71 59.05 60.62 61.91 62.97 61.80 60.23 60.12 60.28 60.29 60.42
51.17 49.43 48.28 48.98 48.52 49.24 49.51 49.74 49.43 49.67 48.85 47.28 45.97 45.21 43.87 43.83 46.19 45.46 43.91 45.60 46.97 47.92 49.61 51.57 51.27 51.61 52.10 53.70 54.72 56.12 57.48 59.81 59.14 59.23 59.26 60.10 60.85 61.97 61.91 62.04 60.94 60.70 58.74
48.96 49.56 49.02 47.48 48.75 48.63 49.09 49.22 49.92 49.33 48.71 46.26 45.94 45.99 45.21 45.84 44.96 43.53 42.63 43.05 45.34 46.40 48.94 48.65 48.84 49.54 49.91 50.89 51.56 52.47 54.40 56.06 57.22 59.46 60.04 60.24 59.90 60.22 60.60 61.13 60.47 59.65 59.50
46.90 47.45 48.33 45.11 45.19 47.65 48.03 47.71 46.94 48.69 48.65 46.35 44.43 44.50 44.09 44.07 44.06 42.65 42.75 42.82 44.96 47.25 48.07 48.54 48.51 49.07 49.41 50.04 50.91 51.21 52.15 53.98 54.66 55.62 59.19 58.17 57.57 58.29 58.98 59.94 60.28 60.56 60.11
46.99 49.98 46.44 44.37 46.10 45.06 44.06 45.14 44.39 43.80 44.44 44.85 46.10 45.14 44.07 42.87 44.20 43.63 43.18 43.40 43.63 45.25 45.93 48.24 48.45 49.07 49.46 49.76 48.87 47.89 49.10 49.77 49.90 50.48 52.43 53.81 55.94 57.28 58.64 58.97 59.65 59.72 60.39
47.51 46.58 45.09 45.00 45.83 46.06 44.03 44.68 44.54 44.34 43.72 42.98 42.91 44.79 44.02 42.79 42.77 44.17 43.52 42.55 41.57 42.21 43.38 44.19 47.23 48.82 48.60 48.89 48.56 46.96 46.79 46.44 46.88 47.53 48.80 49.90 51.34 52.81 53.83 57.18 59.57 55.65 56.84
47.78 52.73 52.48 46.86 45.64 45.30 45.13 45.27 44.89 44.38 43.42 42.92 42.64 43.22 46.33 44.97 44.79 45.15 44.30 43.54 42.72 42.32 42.92 43.31 44.23 45.49 46.65 47.88 47.53 46.02 45.12 44.05 43.27 43.84 45.71 47.21 48.78 50.62 52.01 53.46 55.18 57.00 58.65
49.29 48.82 53.17 49.53 46.59 45.82 47.62 49.10 46.49 47.26 43.98 43.89 43.42 43.67 44.98 44.06 43.60 43.87 45.72 45.33 44.56 44.20 43.77 43.77 44.20 44.61 45.78 46.59 47.32 46.49 44.99 43.73 42.55 42.05 42.24 44.62 46.52 47.80 50.33 52.34 53.62 55.10 56.84
50.74 49.26 48.52 48.67 48.88 49.46 49.41 49.89 50.35 48.15 47.60 46.08 44.87 44.05 43.79 43.66 42.93 43.36 43.85 45.80 47.46 47.14 47.30 46.79 46.61 45.56 45.51 45.89 46.65 46.83 44.85 43.41 41.69 40.56 40.20 41.38 43.93 46.04 48.49 50.47 51.73 53.80 55.14
49.49 48.66 49.18 49.27 50.23 50.55 49.90 50.02 50.51 48.91 49.59 48.42 47.90 45.61 45.04 44.81 44.49 44.05 44.64 45.09 45.60 46.58 47.60 47.55 47.93 47.91 47.46 46.22 46.38 46.70 45.51 43.79 40.48 39.45 38.93 39.51 39.98 43.58 46.36 48.38 50.83 52.92 52.77
49.30 48.78 49.64 50.13 50.06 49.12 49.86 50.09 50.24 48.38 49.05 49.10 50.06 49.11 46.26 47.09 46.11 45.74 46.14 46.30 46.51 46.45 46.83 46.31 45.82 45.90 46.07 46.79 46.83 46.74 44.43 43.64 38.97 37.27 38.15 36.58 37.95 41.35 45.08 47.62 50.72 52.10 51.51
47.87 49.10 49.69 49.95 49.78 49.92 50.11 50.04 51.04 51.27 49.49 49.95 48.98 48.62 48.23 46.99 46.30 45.97 46.57 46.18 46.69 45.04 44.78 44.71 44.51 43.46 46.10 47.10 44.20 41.22 38.35 34.78 34.07 35.57 35.63 36.03 37.16 40.04 43.51 47.06 50.32 50.29 50.37
47.89 48.93 49.79 52.52 53.37 50.93 52.03 51.72 52.26 51.84 50.00 50.26 50.04 50.72 48.86 47.89 46.41 46.55 46.29 46.18 46.87 44.71 44.03 43.48 43.26 43.39 42.99 42.45 42.51 37.76 32.41 31.77 33.01 31.07 32.28 33.77 36.74 40.19 43.46 45.51 48.55 48.22 48.34
MSLP
1013.80 1013.81 1014.00 1014.08 1014.14 1014.06 1013.87 1013.64 1013.32 1013.15 1012.83 1012.32 1011.92 1011.65 1011.42 1011.11 1010.75 1010.47 1010.18 1010.08 1010.18 1010.15 1010.28 1010.45 1010.30 1010.12 1010.03 1010.15 1010.10 1010.28 1010.40 1010.62 1010.76 1010.41 1010.47 1010.16 1010.35 1010.33 1009.89 1009.56 1010.29 1010.23 1009.77
1014.43 1014.48 1014.77 1014.92 1014.95 1014.75 1014.70 1014.45 1014.02 1013.63 1013.31 1012.84 1012.45 1012.04 1011.74 1011.33 1010.98 1010.67 1010.37 1010.10 1010.01 1009.82 1009.71 1009.75 1009.65 1009.63 1009.74 1009.57 1009.41 1009.54 1009.63 1009.67 1009.94 1010.01 1009.91 1010.01 1009.83 1009.55 1009.52 1009.57 1009.63 1009.56 1010.04
1014.59 1014.90 1015.39 1015.53 1015.49 1015.44 1015.09 1014.80 1014.32 1014.01 1013.73 1013.28 1012.89 1012.47 1012.16 1011.74 1011.27 1010.96 1010.78 1010.38 1010.00 1009.68 1009.36 1009.21 1009.06 1009.08 1008.99 1009.00 1009.05 1009.04 1009.00 1009.18 1009.30 1009.46 1009.35 1009.42 1009.29 1009.07 1009.20 1009.16 1009.26 1009.46 1009.32
1015.28 1015.78 1016.14 1016.15 1015.89 1015.68 1015.44 1015.17 1014.68 1014.35 1014.02 1013.71 1013.38 1013.05 1012.65 1012.14 1011.50 1011.31 1011.11 1010.76 1010.27 1009.70 1009.20 1008.81 1008.55 1008.39 1008.40 1008.40 1008.52 1008.47 1008.53 1008.70 1008.98 1009.01 1008.97 1008.90 1008.80 1008.64 1008.40 1008.50 1008.61 1008.50 1008.59
1016.18 1016.53 1016.71 1016.54 1016.29 1016.02 1015.68 1015.25 1014.84 1014.55 1014.23 1013.81 1013.48 1013.17 1012.84 1012.31 1011.81 1011.71 1011.38 1010.98 1010.47 1009.84 1009.15 1008.57 1008.13 1007.86 1007.62 1007.56 1007.93 1007.84 1008.06 1008.29 1008.50 1008.67 1008.60 1008.44 1008.33 1008.34 1007.97 1007.83 1008.21 1008.17 1007.96
1017.00 1017.23 1017.11 1016.82 1016.37 1015.91 1015.48 1015.08 1014.72 1014.42 1014.09 1013.88 1013.69 1013.40 1013.07 1012.57 1012.08 1011.62 1011.18 1010.73 1010.14 1009.66 1009.11 1008.39 1007.90 1007.48 1007.19 1006.95 1006.94 1007.05 1007.24 1007.62 1007.91 1008.05 1007.99 1007.85 1007.51 1007.26 1007.11 1007.23 1007.72 1007.96 1008.09
1017.58 1017.48 1017.27 1016.84 1016.40 1015.83 1015.47 1015.21 1014.96 1014.56 1014.30 1014.16 1013.95 1013.63 1013.21 1012.69 1012.13 1011.65 1010.91 1010.27 1009.75 1009.27 1008.75 1008.22 1007.73 1007.18 1006.92 1006.75 1006.53 1006.38 1006.54 1006.67 1006.79 1006.92 1007.12 1006.87 1006.91 1006.57 1006.89 1007.24 1007.14 1007.15 1007.35
1017.64 1017.52 1017.29 1016.84 1016.59 1016.19 1015.95 1015.70 1015.38 1015.12 1014.83 1014.44 1014.08 1013.67 1013.30 1012.87 1012.35 1011.87 1010.97 1009.89 1009.38 1008.86 1008.30 1007.80 1007.48 1007.15 1006.76 1006.58 1006.45 1006.32 1006.16 1006.09 1006.17 1006.33 1006.26 1006.07 1006.05 1005.99 1006.19 1006.21 1006.55 1006.62 1006.59
1017.77 1017.57 1017.31 1016.98 1016.66 1016.44 1016.18 1015.94 1015.70 1015.40 1015.02 1014.69 1014.25 1013.81 1013.36 1013.00 1012.53 1012.11 1011.47 1010.40 1009.60 1009.00 1008.24 1007.70 1007.41 1007.03 1006.57 1006.24 1006.14 1005.86 1005.62 1005.25 1005.07 1005.02 1005.10 1005.07 1005.26 1005.53 1005.91 1006.33 1006.28 1006.66 1006.37
1017.79 1017.47 1017.19 1017.00 1016.90 1016.68 1016.41 1016.22 1016.03 1015.80 1015.44 1015.07 1014.78 1014.45 1014.10 1013.75 1013.18 1012.72 1012.16 1011.21 1010.40 1009.56 1008.53 1007.74 1007.33 1007.05 1006.68 1006.48 1006.32 1005.85 1005.47 1004.78 1004.62 1004.50 1004.64 1004.64 1004.72 1004.86 1005.41 1005.81 1005.99 1005.96 1006.12
1017.42 1017.27 1017.23 1017.16 1017.06 1016.82 1016.58 1016.46 1016.23 1016.15 1015.92 1015.63 1015.23 1014.69 1014.26 1013.81 1013.20 1012.65 1012.11 1011.54 1010.93 1009.81 1008.85 1008.10 1007.55 1007.10 1006.77 1006.33 1006.17 1006.08 1005.48 1004.78 1004.48 1004.49 1004.38 1004.30 1004.34 1004.30 1004.37 1004.48 1004.75 1005.16 1005.38
1017.66 1017.51 1017.36 1017.24 1017.09 1016.92 1016.63 1016.42 1016.15 1016.33 1016.22 1015.87 1015.44 1014.86 1014.24 1013.75 1013.20 1012.56 1012.08 1011.54 1010.85 1010.23 1009.32 1008.45 1007.69 1007.21 1006.71 1006.06 1005.61 1005.24 1004.93 1004.73 1004.62 1004.50 1004.52 1004.24 1003.94 1003.73 1003.49 1003.54 1003.66 1003.93 1003.94
1017.61 1017.65 1017.56 1017.31 1017.02 1016.83 1016.74 1016.58 1016.28 1016.28 1016.27 1016.18 1015.92 1015.47 1014.81 1014.09 1013.44 1012.70 1012.09 1011.53 1010.86 1010.06 1009.33 1008.59 1007.88 1007.15 1006.44 1005.61 1005.03 1004.69 1004.50 1004.45 1004.35 1004.26 1004.06 1003.69 1003.18 1002.70 1002.82 1003.02 1002.95 1003.11 1003.23
1017.70 1017.70 1017.55 1017.38 1017.14 1016.79 1016.61 1016.45 1016.34 1016.19 1016.12 1016.06 1016.00 1015.78 1015.22 1014.44 1013.78 1013.18 1012.43 1011.68 1010.94 1010.05 1009.19 1008.43 1007.75 1007.06 1006.23 1005.73 1005.25 1004.87 1004.51 1004.20 1004.04 1003.87 1003.51 1003.11 1002.71 1002.65 1002.59 1002.61 1002.87 1002.94 1002.96
1017.78 1017.67 1017.58 1017.32 1017.12 1016.89 1016.53 1016.28 1016.19 1015.77 1015.63 1015.58 1015.65 1015.69 1015.52 1014.94 1014.23 1013.75 1013.16 1012.31 1011.45 1010.64 1009.67 1008.70 1008.07 1007.48 1006.90 1006.41 1005.99 1005.59 1004.97 1004.30 1003.85 1003.52 1003.25 1002.91 1002.65 1002.47 1002.19 1002.03 1002.38 1002.44 1002.63
1017.61 1017.36 1017.25 1017.15 1016.88 1016.74 1016.53 1016.06 1015.23 1015.18 1014.76 1014.75 1014.88 1015.09 1014.94 1014.72 1014.28 1013.75 1013.19 1012.52 1011.80 1010.93 1010.11 1009.58 1009.10 1008.62 1007.99 1007.35 1006.72 1006.08 1005.50 1004.94 1004.31 1003.60 1003.14 1002.85 1002.61 1002.40 1002.16 1001.95 1002.03 1002.04 1002.11
1017.35 1017.08 1016.91 1016.76 1016.62 1016.43 1016.21 1016.08 1015.95 1014.75 1014.42 1014.15 1014.15 1014.44 1014.60 1014.43 1014.07 1013.68 1013.16 1012.67 1012.05 1011.35 1011.01 1010.54 1010.02 1009.45 1008.92 1008.27 1007.58 1006.99 1006.31 1005.65 1004.99 1004.23 1003.35 1002.95 1002.64 1002.31 1002.07 1001.76 1001.61 1001.53 1001.38
1017.00 1016.80 1016.73 1016.58 1016.36 1016.07 1015.87 1015.67 1015.51 1015.42 1015.10 1014.43 1013.74 1013.86 1013.87 1013.79 1013.67 1013.50 1013.12 1012.67 1012.32 1011.79 1011.54 1011.16 1010.67 1010.10 1009.56 1009.03 1008.46 1007.96 1007.17 1006.57 1005.84 1005.28 1004.47 1003.63 1003.16 1002.68 1001.99 1001.63 1001.35 1001.11 1000.87
1016.87 1016.69 1016.58 1016.49 1016.19 1015.90 1015.65 1015.30 1015.15 1014.96 1014.74 1014.44 1014.12 1013.66 1013.36 1013.22 1013.20 1013.12 1013.08 1013.08 1012.89 1012.29 1011.71 1011.29 1010.92 1010.47 1009.96 1009.42 1008.98 1008.46 1008.01 1007.45 1006.88 1006.06 1005.30 1004.58 1003.98 1003.20 1002.41 1001.73 1001.04 1000.56 1000.29
1016.60 1016.16 1016.00 1015.94 1015.80 1015.77 1015.53 1015.29 1015.04 1014.85 1014.50 1014.29 1014.01 1013.76 1013.38 1013.43 1013.24 1012.87 1012.76 1012.65 1012.41 1012.10 1011.69 1011.26 1010.82 1010.44 1010.06 1009.61 1009.15 1008.65 1008.06 1007.59 1007.24 1006.65 1006.04 1005.14 1004.47 1003.75 1002.82 1002.13 1001.42 1000.65 999.98
1016.34 1016.07 1015.70 1015.53 1015.40 1015.61 1015.21 1014.81 1014.54 1014.34 1014.49 1014.06 1013.69 1013.29 1012.94 1013.24 1013.07 1012.70 1012.34 1012.08 1011.82 1011.42 1011.11 1010.79 1010.38 1010.04 1009.75 1009.40 1009.04 1008.65 1008.20 1007.81 1007.44 1007.02 1006.51 1005.85 1004.96 1003.97 1003.12 1002.28 1001.51 1000.82 1000.04
1015.94 1015.87 1015.77 1015.32 1015.04 1015.00 1014.90 1014.57 1014.28 1014.10 1013.95 1013.84 1013.49 1013.09 1012.53 1012.79 1012.58 1012.23 1011.96 1011.55 1011.09 1010.78 1010.42 1010.14 1009.77 1009.41 1009.13 1008.98 1008.81 1008.51 1008.21 1007.91 1007.53 1007.04 1006.48 1005.90 1005.20 1004.14 1003.25 1002.41 1001.73 1000.87 1000.26
1015.68 1015.66 1015.46 1015.22 1015.04 1014.81 1014.65 1014.32 1014.10 1013.60 1013.31 1012.97 1012.95 1012.62 1012.34 1012.24 1012.05 1011.86 1011.51 1011.15 1010.76 1010.37 1010.00 1009.65 1009.38 1009.00 1008.46 1008.25 1008.22 1008.19 1008.03 1007.74 1007.63 1007.46 1006.93 1006.18 1005.27 1004.40 1003.58 1002.64 1001.88 1001.11 1000.53
1015.18 1015.23 1015.17 1014.95 1014.76 1014.50 1014.37 1014.06 1013.70 1013.51 1013.13 1012.68 1012.40 1012.34 1012.00 1011.71 1011.44 1011.19 1010.93 1010.64 1010.42 1010.14 1009.81 1009.45 1009.15 1008.81 1008.27 1007.85 1007.68 1007.62 1007.55 1007.35 1007.39 1007.14 1006.75 1006.14 1005.26 1004.32 1003.53 1002.68 1001.97 1001.31 1000.70
1014.79 1014.80 1014.69 1014.52 1014.16 1013.91 1013.76 1013.59 1013.21 1012.82 1012.68 1012.30 1011.92 1011.78 1011.43 1011.08 1010.94 1010.69 1010.53 1010.33 1010.07 1009.79 1009.56 1009.25 1008.91 1008.54 1008.16 1007.81 1007.49 1007.35 1007.21 1007.15 1006.99 1006.55 1006.21 1005.63 1005.03 1004.28 1003.40 1002.71 1001.95 1001.40 1000.84
1014.37 1014.26 1014.12 1013.81 1013.57 1013.36 1013.35 1012.90 1012.59 1012.39 1012.14 1011.67 1011.62 1011.44 1010.91 1010.77 1010.66 1010.37 1010.22 1010.00 1009.80 1009.49 1009.21 1008.88 1008.57 1008.12 1007.79 1007.53 1007.22 1007.06 1006.95 1006.79 1006.53 1006.12 1005.75 1005.25 1004.53 1003.72 1003.07 1002.65 1002.07 1001.63 1001.14
Wind_Speed
7 8 9 9 9 9 9 9 9 8 9 9 8 8 8 7 7 6 6 5 5 4 5 8 12 13 10 9 6 6 6 5 7 3 4 5 4 5 5 4 5 4 4
5 9 9 8 7 8 7 7 8 8 8 10 10 9 10 10 9 8 7 7 6 5 6 5 7 4 10 10 6 7 6 7 5 8 5 4 6 6 5 4 5 4 6
9 9 8 7 7 6 6 6 8 8 9 11 11 11 11 10 10 9 9 8 7 6 6 6 7 5 6 4 5 4 4 3 5 4 4 4 5 3 4 4 4 5 4
9 8 7 6 7 7 7 6 6 6 6 6 6 7 8 9 9 11 11 10 9 8 6 6 7 6 7 6 5 5 4 4 3 3 4 4 4 4 3 4 5 4 4
9 8 7 6 5 5 5 5 5 5 6 6 7 7 7 8 8 11 10 10 9 9 10 7 6 8 11 9 4 6 4 4 3 4 3 3 4 3 5 3 4 3 3
7 6 5 5 5 5 6 6 6 6 6 7 7 7 7 8 13 18 18 10 8 7 9 9 7 9 9 12 13 12 9 6 5 4 4 6 8 5 4 5 4 2 4
5 4 5 5 6 7 9 9 10 11 11 9 10 9 10 8 16 21 23 9 9 8 8 7 7 6 7 6 9 10 10 10 11 5 8 8 5 7 4 4 5 4 4
6 6 6 7 7 7 7 8 8 8 8 10 10 10 8 9 19 19 26 9 7 8 8 7 6 7 7 7 6 6 7 7 8 7 11 10 9 6 10 6 7 6 3
6 6 6 5 5 6 7 8 8 7 6 8 10 10 12 12 17 19 20 12 11 10 8 6 7 7 9 12 6 7 7 8 8 14 13 12 10 9 7 3 4 5 4
4 5 3 5 6 5 6 7 8 7 8 8 10 9 12 9 15 16 17 8 9 8 9 8 10 10 9 11 6 6 6 8 5 4 4 6 8 7 11 7 3 5 4
4 4 3 3 4 3 5 4 4 5 5 6 6 6 5 7 8 14 17 8 9 10 8 8 6 11 13 13 9 6 6 5 6 5 4 4 4 5 6 7 9 8 7
4 5 5 3 2 2 4 3 4 5 6 6 6 7 7 8 12 14 18 18 16 9 10 9 10 16 18 16 10 10 11 7 4 3 4 6 5 5 6 6 7 9 8
4 3 2 3 2 1 1 2 3 3 3 4 4 5 6 7 8 19 19 19 15 10 8 14 20 18 16 11 12 13 10 4 4 4 5 7 6 7 4 3 5 6 6
4 1 2 0 2 3 2 1 2 3 4 3 4 5 5 6 7 9 9 9 14 11 14 9 12 12 12 9 7 7 4 4 4 5 5 6 6 3 4 4 5 4 3
4 3 4 4 4 4 5 4 4 5 5 4 3 3 4 5 6 9 8 8 9 11 9 7 8 9 9 8 8 8 8 6 4 4 4 5 6 6 6 3 4 5 5
4 5 3 3 5 4 4 7 7 12 12 11 9 6 3 7 9 9 12 13 14 16 8 8 8 8 8 9 9 8 7 10 9 6 4 4 5 4 5 5 4 4 5
3 5 3 2 2 3 3 3 5 7 7 9 10 8 9 10 7 9 11 13 10 9 7 7 7 8 8 8 9 9 9 8 11 9 7 4 4 4 4 5 5 6 7
4 7 3 3 2 2 2 3 2 2 4 5 6 9 9 11 7 6 8 8 5 4 3 5 6 6 7 7 8 8 9 9 9 9 8 8 7 7 6 6 6 7 8
4 2 4 4 4 4 3 4 2 3 3 4 4 3 8 11 9 7 2 2 3 4 3 4 4 5 5 5 6 7 8 9 10 9 8 8 7 7 7 8 7 9 9
4 7 4 4 4 4 4 5 4 5 4 4 4 3 3 3 3 4 3 2 4 4 4 4 4 4 4 4 4 4 6 8 9 9 10 8 8 7 7 8 7 8 7
3 5 7 5 3 2 5 4 3 3 5 5 4 4 7 2 5 4 5 4 5 5 5 5 5 4 4 4 4 4 4 5 6 7 9 9 9 8 7 7 7 8 6
4 5 4 3 3 3 4 4 2 3 4 4 5 5 6 3 4 4 4 5 5 5 5 5 6 5 4 4 4 4 4 5 7 8 9 9 9 9 8 7 8 8 6
4 5 5 3 2 3 4 4 4 2 4 5 4 5 4 4 4 4 4 4 4 5 4 4 4 6 5 4 4 4 4 5 5 5 7 9 9 8 7 7 8 7 7
4 4 4 4 4 4 4 5 5 6 6 6 4 5 5 4 4 4 3 3 3 4 4 4 3 5 6 4 3 3 3 3 3 6 9 8 8 8 7 7 8 8 7
5 4 5 5 5 5 5 5 6 6 5 7 5 4 4 4 5 4 4 3 3 3 5 5 3 5 5 4 4 6 7 6 7 10 6 7 8 11 8 7 8 8 8
5 5 5 5 5 5 5 5 6 6 6 7 3 5 5 4 5 5 5 5 4 4 5 4 5 8 8 6 8 8 8 8 8 8 6 6 6 6 6 7 9 7 8
Wind_Direction
47 45 41 33 33 30 27 21 22 8 359 12 13 9 3 350 339 321 287 272 259 252 200 219 228 222 234 247 233 207 214 189 228 257 224 211 214 230 244 196 219 204 243
63 61 52 46 32 36 21 9 9 8 4 10 7 7 1 355 350 340 324 323 296 265 268 231 250 217 219 241 233 224 219 210 206 245 209 209 216 213 237 242 247 220 194
71 65 52 40 35 24 13 1 10 10 8 9 7 5 354 351 339 345 355 341 339 317 284 253 245 244 255 243 243 235 219 201 208 201 236 198 217 196 197 220 226 238 225
63 56 47 28 23 15 2 359 7 359 6 5 2 350 348 338 329 3 355 346 337 323 304 282 259 232 237 252 247 245 236 227 195 227 221 221 210 225 198 209 247 194 215
63 51 32 20 24 9 356 351 348 360 354 348 352 351 340 340 356 345 339 328 325 324 315 304 285 261 234 217 211 247 233 234 220 219 236 210 198 196 201 186 223 260 264
59 45 18 11 2 356 350 351 359 3 357 1 350 341 335 338 327 332 334 317 299 303 303 302 301 293 280 244 223 221 207 202 223 204 217 223 229 213 189 178 193 193 270
58 22 7 4 0 7 11 12 5 4 359 358 349 343 340 330 337 335 332 303 290 282 283 286 293 298 305 296 276 246 229 225 228 214 231 230 226 213 191 237 226 213 203
39 17 9 14 9 8 11 4 1 358 355 352 341 338 338 335 342 2 348 324 287 276 273 276 272 284 290 287 276 266 244 228 221 216 228 242 234 226 210 199 213 234 244
24 17 12 360 353 5 11 11 5 356 354 354 344 342 348 351 354 8 360 343 348 341 334 323 316 295 285 284 277 256 256 253 219 213 221 230 236 227 200 194 201 213 238
30 26 350 7 30 30 21 20 8 0 354 351 347 344 345 338 341 355 359 340 332 323 319 323 315 334 338 351 314 294 268 260 253 251 239 249 234 236 206 220 198 206 222
21 11 3 42 33 21 45 32 12 5 347 336 336 335 327 325 329 342 352 342 333 320 317 318 313 323 337 326 316 278 260 305 298 280 255 244 237 228 230 224 222 208 215
354 357 11 3 27 19 94 33 348 11 351 337 336 335 342 343 340 345 349 343 333 325 315 312 313 325 315 306 307 279 272 290 284 261 257 257 241 234 233 216 213 217 223
14 14 34 53 94 337 348 360 315 359 343 324 328 321 326 333 337 346 346 346 339 328 311 310 308 306 297 299 284 284 289 266 261 258 256 266 247 250 215 229 229 226 233
3 220 238 39 314 322 327 305 293 299 308 302 318 314 316 325 337 345 342 339 340 338 336 320 317 316 291 288 335 337 309 273 252 248 261 267 273 247 240 207 239 233 205
4 286 278 265 265 283 275 244 254 259 215 235 241 254 299 323 322 320 333 344 345 338 330 354 2 1 359 355 354 351 341 322 292 268 262 265 266 271 265 243 227 239 219
332 308 288 274 260 260 276 305 246 237 260 227 226 207 277 258 295 332 341 336 345 341 10 6 2 357 355 348 346 342 346 342 337 309 277 258 255 249 253 252 212 219 236
288 288 287 314 322 272 288 269 293 323 297 262 239 234 229 255 321 335 349 335 327 352 21 5 1 355 352 350 351 346 340 345 343 338 331 316 301 291 271 257 245 241 245
332 283 258 301 283 297 315 307 303 321 321 312 298 223 243 256 282 327 358 347 341 357 1 353 353 355 351 347 7 351 348 348 348 338 339 337 345 330 291 268 257 249 246
7 299 275 301 285 273 298 308 323 311 311 304 329 326 247 262 276 287 342 83 297 313 321 327 325 325 336 347 357 356 355 356 345 336 339 339 332 328 321 318 307 259 247
320 296 282 272 267 294 312 311 325 306 301 306 310 277 297 351 309 289 263 260 276 277 286 290 298 298 301 313 324 338 357 4 352 349 336 332 322 319 321 316 315 313 283
286 297 318 303 270 267 289 278 277 294 292 290 281 261 250 231 292 285 294 275 259 265 266 265 273 272 277 287 298 312 335 346 345 342 336 324 316 315 318 316 315 307 308
279 297 319 295 217 270 272 275 348 331 310 297 297 286 289 250 271 278 299 284 277 270 265 266 274 258 252 257 277 299 315 327 335 335 330 321 312 315 315 320 318 319 332
279 307 312 263 253 265 293 310 285 301 275 274 306 273 256 269 279 273 296 301 307 305 306 299 291 304 283 247 244 259 282 293 308 303 294 302 307 307 311 308 308 317 334
281 276 253 252 271 263 271 279 280 271 271 275 272 273 271 286 267 252 255 276 310 322 320 336 331 328 320 311 261 277 286 266 281 283 281 288 296 303 301 307 307 326 327
249 262 278 273 276 269 270 268 272 263 256 266 274 271 276 281 255 248 252 267 284 297 310 316 317 331 338 323 297 308 296 285 286 290 278 277 278 288 289 298 310 320 323
267 272 272 271 271 280 278 257 267 269 259 260 291 288 271 290 275 255 254 254 272 278 296 296 302 321 319 305 288 299 303 303 308 288 283 280 284 289 294 298 313 320 318